Weather History for KHQU - February, 2014

Change the Weather History Date:

Sunday, February 23, 2014

  Actual Average (KDBN) Record (KDBN)
Temperature  
Mean Temperature 50 °F -  
Max Temperature 66 °F 64 °F 80 °F (1930)
Min Temperature 34 °F 39 °F 19 °F (1978)
Degree Days  
Heating Degree Days 15    
Moisture  
Dew Point 45 °F    
Average Humidity 82    
Maximum Humidity 100    
Minimum Humidity 50    
Precipitation  
Precipitation 0.00 in - - ()
Sea Level Pressure  
Sea Level Pressure 30.08 in    
Wind  
Wind Speed 1 mph (South)    
Max Wind Speed 6 mph    
Max Gust Speed -    
Visibility 10 miles    
Events      
Averages and records for this station are not official NWS values.
T = Trace of Precipitation, MM = Missing Value Source: NWS Daily Summary

Daily Weather History Graph

Daily Weather History Graph

Search for Another Location

Airport or City:

Trip Planner

Search our weather history database for the weather conditions in past years. The results will help you decide how hot, cold, wet, or windy it might be!

Date:

Astronomy

Feb. 23, 2014 Rise Set
Actual Time 7:05 AM EST 6:21 PM EST
Civil Twilight 6:40 AM EST 6:46 PM EST
Nautical Twilight 6:11 AM EST 7:15 PM EST
Astronomical Twilight 5:42 AM EST 7:44 PM EST
Moon 1:54 AM EST (2/23) 12:31 PM EST (2/23)
Length of Visible Light 12h 06m
Length of Day
11h 16m
Last Quarter, 39% of the Moon is Illuminated
Feb 23
Last Quarter
Mar 1
New
Mar 8
First Quarter
Mar 16
Full
Mar 23
Last Quarter

Hourly Weather History & Observations

Time (EST) Temp. Dew Point Humidity Pressure Visibility Wind Dir Wind Speed Gust Speed Precip Events Conditions
12:15 AM 41.0 °F 39.0 °F 93% 30.14 in 10.0 mi Calm Calm - N/A   Clear
12:35 AM 40.5 °F 39.0 °F 95% 30.14 in 10.0 mi Calm Calm - N/A   Clear
12:55 AM 39.9 °F 38.3 °F 94% 30.14 in 10.0 mi Calm Calm - N/A   Clear
1:15 AM 39.6 °F 38.7 °F 97% 30.14 in 10.0 mi Calm Calm - N/A   Clear
1:35 AM 39.0 °F 38.1 °F 97% 30.13 in 10.0 mi Calm Calm - N/A   Clear
1:55 AM 38.3 °F 37.9 °F 99% 30.13 in 10.0 mi Calm Calm - N/A   Clear
2:15 AM 36.7 °F 36.5 °F 99% 30.13 in 10.0 mi Calm Calm - N/A   Clear
2:35 AM 36.9 °F 36.9 °F 100% 30.13 in 10.0 mi Calm Calm - N/A   Clear
2:55 AM 36.5 °F 36.5 °F 100% 30.13 in 10.0 mi Calm Calm - N/A   Clear
3:15 AM 36.0 °F 36.0 °F 100% 30.13 in 10.0 mi Calm Calm - N/A   Clear
3:35 AM 35.8 °F 35.8 °F 100% 30.13 in 10.0 mi Calm Calm - N/A   Clear
3:55 AM 35.6 °F 35.6 °F 100% 30.13 in 10.0 mi Calm Calm - N/A   Clear
4:15 AM 36.0 °F 36.0 °F 100% 30.12 in 10.0 mi Calm Calm - N/A   Clear
4:35 AM 35.1 °F 35.1 °F 100% 30.12 in 10.0 mi Calm Calm - N/A   Clear
4:55 AM 35.6 °F 35.6 °F 100% 30.13 in 10.0 mi Calm Calm - N/A   Clear
5:15 AM 35.6 °F 35.6 °F 100% 30.13 in 10.0 mi Calm Calm - N/A   Clear
5:35 AM 35.2 °F 35.2 °F 100% 30.13 in 10.0 mi Calm Calm - N/A   Clear
5:55 AM 35.1 °F 35.1 °F 100% 30.13 in 10.0 mi Calm Calm - N/A   Clear
6:15 AM 34.5 °F 34.5 °F 100% 30.13 in 10.0 mi Calm Calm - N/A   Clear
6:35 AM 34.9 °F 34.9 °F 100% 30.13 in 10.0 mi Calm Calm - N/A   Clear
6:55 AM 34.9 °F 34.9 °F 100% 30.13 in 10.0 mi Calm Calm - N/A   Clear
7:15 AM 35.8 °F 35.8 °F 100% 30.12 in 10.0 mi Calm Calm - N/A   Clear
7:35 AM 36.5 °F 36.5 °F 100% 30.12 in 10.0 mi Calm Calm - N/A   Clear
7:55 AM 37.6 °F 37.6 °F 100% 30.12 in 10.0 mi Calm Calm - N/A   Clear
8:15 AM 39.0 °F 39.0 °F 100% 30.13 in 10.0 mi Calm Calm - N/A   Clear
8:35 AM 40.5 °F 40.5 °F 100% 30.13 in 10.0 mi Calm Calm - N/A   Clear
8:55 AM 44.4 °F 42.6 °F 93% 30.14 in 10.0 mi Calm Calm - N/A   Clear
9:15 AM 47.5 °F 44.2 °F 89% 30.14 in 10.0 mi Calm Calm - N/A   Clear
9:35 AM 49.5 °F 45.0 °F 84% 30.15 in 10.0 mi Calm Calm - N/A   Clear
9:55 AM 50.9 °F 44.8 °F 80% 30.14 in 10.0 mi Calm Calm - N/A   Clear
10:15 AM 52.3 °F 44.1 °F 73% 30.15 in 10.0 mi Calm Calm - N/A   Scattered Clouds
10:35 AM 53.6 °F 43.0 °F 67% 30.16 in 10.0 mi Calm Calm - N/A   Scattered Clouds
10:55 AM 55.8 °F 44.6 °F 66% 30.16 in 10.0 mi Calm Calm - N/A   Clear
11:15 AM 58.8 °F 43.3 °F 56% 30.15 in 10.0 mi SSW 3.5 mph - N/A   Scattered Clouds
11:35 AM 60.4 °F 43.5 °F 54% 30.14 in 10.0 mi South 3.5 mph - N/A   Scattered Clouds
11:55 AM 60.3 °F 45.1 °F 57% 30.12 in 10.0 mi South 4.6 mph - N/A   Clear
12:15 PM 61.2 °F 45.5 °F 56% 30.11 in 10.0 mi Calm Calm - N/A   Clear
12:35 PM 61.0 °F 45.9 °F 58% 30.10 in 10.0 mi Calm Calm - N/A   Clear
12:55 PM 63.5 °F 46.8 °F 54% 30.08 in 10.0 mi SSE 3.5 mph - N/A   Clear
1:15 PM 64.6 °F 47.3 °F 53% 30.07 in 10.0 mi SSE 3.5 mph - N/A   Clear
1:35 PM 65.5 °F 47.5 °F 52% 30.06 in 10.0 mi SW 4.6 mph - N/A   Clear
1:55 PM 65.8 °F 47.1 °F 51% 30.05 in 10.0 mi SSW 5.8 mph - N/A   Clear
2:15 PM 66.0 °F 46.9 °F 50% 30.04 in 10.0 mi South 4.6 mph - N/A   Clear
2:30 PM 66.2 °F 47.1 °F 50% 30.04 in 10.0 mi SSW 3.5 mph - N/A   Clear
2:55 PM 66.2 °F 47.5 °F 51% 30.03 in 10.0 mi South 4.6 mph - N/A   Clear
3:15 PM 65.7 °F 49.3 °F 55% 30.03 in 10.0 mi SSE 3.5 mph - N/A   Clear
3:35 PM 65.7 °F 49.3 °F 55% 30.03 in 10.0 mi South 4.6 mph - N/A   Clear
3:55 PM 65.7 °F 49.5 °F 56% 30.03 in 10.0 mi Calm Calm - N/A   Clear
4:15 PM 65.1 °F 48.4 °F 55% 30.03 in 10.0 mi Calm Calm - N/A   Clear
4:35 PM 64.4 °F 48.7 °F 57% 30.02 in 10.0 mi Calm Calm - N/A   Scattered Clouds
4:55 PM 63.7 °F 50.0 °F 61% 30.01 in 10.0 mi Calm Calm - N/A   Scattered Clouds
5:15 PM 63.1 °F 50.4 °F 63% 30.01 in 10.0 mi South 3.5 mph - N/A   Clear
5:35 PM 62.6 °F 50.4 °F 64% 30.01 in 10.0 mi South 4.6 mph - N/A   Clear
5:55 PM 61.7 °F 50.4 °F 66% 30.00 in 10.0 mi Calm Calm - N/A   Clear
6:15 PM 60.4 °F 50.9 °F 71% 30.00 in 10.0 mi South 3.5 mph - N/A   Clear
6:35 PM 60.1 °F 51.3 °F 73% 30.00 in 10.0 mi South 3.5 mph - N/A   Clear
6:55 PM 59.4 °F 51.4 °F 75% 30.01 in 10.0 mi Calm Calm - N/A   Clear
7:15 PM 58.6 °F 51.8 °F 78% 30.01 in 10.0 mi Calm Calm - N/A   Clear
7:35 PM 58.3 °F 52.2 °F 80% 30.01 in 10.0 mi South 3.5 mph - N/A   Clear
7:55 PM 57.9 °F 52.7 °F 83% 30.01 in 10.0 mi South 3.5 mph - N/A   Clear
8:15 PM 56.8 °F 52.7 °F 86% 30.01 in 10.0 mi South 3.5 mph - N/A   Clear
8:35 PM 56.3 °F 52.9 °F 88% 30.01 in 10.0 mi Calm Calm - N/A   Clear
8:55 PM 55.8 °F 53.1 °F 91% 30.01 in 10.0 mi SSW 3.5 mph - N/A   Clear
9:15 PM 55.6 °F 53.2 °F 92% 30.01 in 10.0 mi SSW 3.5 mph - N/A   Clear
9:35 PM 55.4 °F 53.1 °F 92% 30.01 in 10.0 mi SSW 3.5 mph - N/A   Clear
9:55 PM 54.9 °F 53.1 °F 94% 30.01 in 10.0 mi SSW 3.5 mph - N/A   Clear
10:15 PM 54.5 °F 52.9 °F 94% 30.01 in 10.0 mi SSW 4.6 mph - N/A   Clear
10:35 PM 54.0 °F 52.9 °F 96% 30.01 in 10.0 mi SSW 3.5 mph - N/A   Clear
10:50 PM 53.8 °F 52.7 °F 96% 30.01 in 10.0 mi Calm Calm - N/A   Clear
11:15 PM 53.6 °F 52.5 °F 96% 30.01 in 10.0 mi Calm Calm - N/A   Clear
11:35 PM 53.8 °F 52.7 °F 96% 30.01 in 10.0 mi SSW 3.5 mph - N/A   Clear
11:55 PM 52.7 °F 52.3 °F 99% 30.00 in 10.0 mi South 3.5 mph - N/A   Clear